Location: Mascot Post Office (historical)
(40.2645°N, 99.5462°W)
Time: 02:25:25
(UTC+00:00)

Cosmos 1656 Rocket - Pass Details

Date: 14 July 2020
Orbit: 796 x 845 km, 71.1° (Epoch: 14 August)

Event Time Altitude Azimuth Distance (km) Brightness Sun altitude
Rises 05:33:57 0° 343° (NNW) 3,309 8.1 -26.0°
Reaches altitude 10° 05:36:31 10° 351° (N) 2,378 7.0 -26.2°
Maximum altitude 05:41:37 40° 60° (ENE) 1,175 4.5 -26.4°
Enters shadow 05:42:22 38° 81° (E) 1,216 4.4 -26.5°
